Location: Newark
(41.7300°N, 13.7500°E)
Time: 14:54:58
(UTC+00:00)

ISS - Visible Passes

Search period start: 27 September 2020 00:00
Search period end: 07 October 2020 00:00
Orbit: 419 x 421 km, 51.6° (Epoch: 28 September)

Date Brightness Start Highest point End Pass type
(mag) Time Alt. Az. Time Alt. Az. Time Alt. Az.
27 Sep -1.3 17:25:36 10° NW 17:27:48 16° N 17:29:59 10° NNE visible
27 Sep -1.2 19:03:06 10° NW 19:04:38 17° N 19:04:38 17° N visible
28 Sep -1.5 18:15:53 10° NNW 18:18:08 16° N 18:19:09 15° NNE visible
29 Sep -1.4 17:28:33 10° NW 17:30:39 15° N 17:32:46 10° NE visible
29 Sep -1.3 19:05:16 10° NW 19:06:40 20° NNW 19:06:40 20° NNW visible
30 Sep -2.1 18:18:07 10° NW 18:20:54 23° NNE 18:21:13 22° NNE visible
01 Oct -1.8 17:30:56 10° NW 17:33:26 19° NNE 17:35:48 11° ENE visible
01 Oct -1.3 19:07:24 10° NW 19:08:46 22° NW 19:08:46 22° NW visible
02 Oct -3.1 18:20:12 10° NW 18:23:24 42° NNE 18:23:24 42° NNE visible
03 Oct -2.6 17:33:01 10° NW 17:36:04 30° NNE 17:38:04 17° ENE visible
03 Oct -1.1 19:09:45 10° WNW 19:11:03 20° WNW 19:11:03 20° WNW visible
04 Oct -3.8 18:22:22 10° WNW 18:25:44 74° SW 18:25:48 73° SSW visible
05 Oct -3.7 17:35:05 10° NW 17:38:26 67° NNE 17:40:39 20° ESE visible
05 Oct -0.6 19:12:54 10° W 19:13:38 13° WSW 19:13:38 13° WSW visible
06 Oct -1.9 18:24:57 10° WNW 18:27:46 24° SW 18:28:36 22° SSW visible
